Patrick Air Force Base, FL

3:48 AM EST on February 08, 2016 (GMT -0500)
Patrick Air Force Base

Weather History for KCOF - October, 2014

Change the Weather History Date:

Monday, October 13, 2014

  Actual Average Record
Temperature  
Mean Temperature 82 °F -  
Max Temperature 85 °F 80 °F 87 °F (2002)
Min Temperature 79 °F 71 °F 69 °F (2006)
Cooling Degree Days 17    
Growing Degree Days 32 (Base 50)    
Moisture  
Dew Point 71 °F    
Average Humidity 69    
Maximum Humidity 74    
Minimum Humidity 61    
Precipitation  
Precipitation 0.00 in - - ()
Sea Level Pressure  
Sea Level Pressure 30.09 in    
Wind  
Wind Speed 16 mph (SE)    
Max Wind Speed 17 mph    
Max Gust Speed -    
Visibility 10 miles    
Events      
Averages and records for this station are not official NWS values.
T = Trace of Precipitation, MM = Missing Value Source: NWS Daily Summary

Daily Weather History Graph

Daily Weather History Graph

Search for Another Location

Airport or City:

Trip Planner

Search our weather history database for the weather conditions in past years. The results will help you decide how hot, cold, wet, or windy it might be!

Date:

Astronomy

Oct. 13, 2014 Rise Set
Actual Time 7:21 AM EDT 6:55 PM EDT
Civil Twilight 6:58 AM EDT 7:18 PM EDT
Nautical Twilight 6:30 AM EDT 7:45 PM EDT
Astronomical Twilight 6:03 AM EDT 8:13 PM EDT
Moon 11:19 PM EDT (10/13) 12:19 PM EDT (10/13)
Length of Visible Light 12h 20m
Length of Day
11h 33m
Waning Gibbous, 70% of the Moon is Illuminated
Oct 13
Waning Gibbous
Oct 15
Last Quarter
Oct 23
New
Oct 30
First Quarter
Nov 6
Full

Hourly Weather History & Observations

Time (EDT) Temp. Heat Index Dew Point Humidity Pressure Visibility Wind Dir Wind Speed Gust Speed Precip Events Conditions
12:58 AM 80.4 °F 84.1 °F 70.9 °F 73% 30.09 in 10.0 mi SE 17.3 mph - N/A   Clear
1:58 AM 80.6 °F 84.1 °F 70.3 °F 71% 30.09 in 10.0 mi SE 17.3 mph - N/A   Clear
2:58 AM 80.2 °F 83.6 °F 70.3 °F 72% 30.09 in 10.0 mi SE 16.1 mph - N/A   Clear
3:58 AM 80.1 °F 82.7 °F 68.4 °F 67% 30.09 in 10.0 mi SE 15.0 mph - N/A   Clear
4:58 AM 80.1 °F 83.0 °F 69.6 °F 70% 30.09 in 10.0 mi SE 15.0 mph - N/A   Clear
5:58 AM 79.9 °F - 70.2 °F 72% 30.09 in 10.0 mi SE 16.1 mph - N/A   Clear
6:58 AM 79.9 °F - 70.2 °F 72% 30.09 in 10.0 mi SE 16.1 mph - N/A   Clear
7:58 AM 80.2 °F 82.6 °F 67.3 °F 64% 30.11 in 10.0 mi SE 17.3 mph - N/A   Clear
8:58 AM 82.0 °F 86.1 °F 70.3 °F 68% 30.12 in 10.0 mi SE 15.0 mph - N/A   Clear
9:58 AM 83.1 °F 87.8 °F 71.2 °F 67% 30.12 in 10.0 mi ESE 13.8 mph - N/A   Clear
10:58 AM 82.9 °F 87.7 °F 71.2 °F 68% 30.14 in 10.0 mi SE 12.7 mph - N/A   Partly Cloudy
11:58 AM 85.3 °F 90.1 °F 70.5 °F 61% 30.12 in 10.0 mi SE 15.0 mph - N/A   Clear
12:58 PM 85.5 °F 91.5 °F 72.1 °F 64% 30.12 in 10.0 mi SSE 15.0 mph - N/A   Clear
1:58 PM 85.6 °F 92.2 °F 72.9 °F 65% 30.09 in 10.0 mi SE 12.7 mph - N/A   Clear
2:58 PM 85.3 °F 90.8 °F 71.2 °F 63% 30.08 in 10.0 mi SE 16.1 mph - N/A   Clear
3:58 PM 84.9 °F 89.4 °F 70.3 °F 61% 30.06 in 10.0 mi SE 15.0 mph - N/A   Clear
4:58 PM 84.0 °F 88.7 °F 70.9 °F 64% 30.06 in 10.0 mi SE 15.0 mph - N/A   Clear
5:58 PM 82.6 °F 87.1 °F 70.9 °F 68% 30.06 in 10.0 mi ESE 15.0 mph - N/A   Clear
6:58 PM 81.1 °F 85.0 °F 70.9 °F 71% 30.04 in 10.0 mi SE 15.0 mph - N/A   Clear
7:58 PM 81.0 °F 85.2 °F 72.0 °F 74% 30.06 in 10.0 mi SE 17.3 mph - N/A   Clear
8:58 PM 81.3 °F 85.8 °F 71.8 °F 73% 30.06 in 10.0 mi SE 16.1 mph - N/A   Partly Cloudy
9:58 PM 81.1 °F 85.4 °F 71.6 °F 73% 30.08 in 10.0 mi SE 16.1 mph - N/A   Clear
10:58 PM 81.3 °F 85.8 °F 71.8 °F 73% 30.08 in 10.0 mi SE 15.0 mph - N/A   Clear
11:58 PM 81.5 °F 85.5 °F 70.7 °F 70% 30.06 in 10.0 mi SSE 13.8 mph - N/A   Partly Cloudy